When you browse on this site, cookies collect data to enhance your experience and personalize the content and advertising you see.
Visit our Privacy Policy to learn more. By continuing to use the site, you agree to this use of cookies and data.
  • In Hungary
  • List of Countries
  • For 7 days
  • Water Temperature
  • Satellite Maps
  • Weather Map
  • News
  • Weather Widgets
  • user-avatar
    Login

    Hourly Weather Zielona

    Today, 16 January, Wednesday

    Time Temperature Precipitation Wind Pressure Humidity
    00:00 -1°C° 0.5 mm 9 mps 725 mmHg 90%
    01:00 0°C° 0 mm 5 mps 725 mmHg 93%
    02:00 -1°C° 0.3 mm 6 mps 725 mmHg 92%
    03:00 -1°C° 0.3 mm 7 mps 726 mmHg 91%
    04:00 -1°C° 0.3 mm 8 mps 726 mmHg 90%
    05:00 -1°C° 0.5 mm 8 mps 726 mmHg 91%
    06:00 -1°C° 0.5 mm 7 mps 727 mmHg 93%
    07:00 -1°C° 0.5 mm 6 mps 727 mmHg 94%
    08:00 -1°C° 0.5 mm 6 mps 728 mmHg 95%
    09:00 -1°C° 0.5 mm 6 mps 728 mmHg 95%
    10:00 -1°C° 0.5 mm 6 mps 729 mmHg 96%
    11:00 -1°C° 0.2 mm 6 mps 729 mmHg 96%
    12:00 +1°C° 0.2 mm 6 mps 729 mmHg 95%
    13:00 +1°C° 0.2 mm 6 mps 729 mmHg 95%
    14:00 0°C° 0 mm 5 mps 729 mmHg 94%
    15:00 0°C° 0 mm 5 mps 730 mmHg 93%
    16:00 0°C° 0 mm 4 mps 730 mmHg 92%
    17:00 0°C° 0 mm 4 mps 730 mmHg 91%
    18:00 -1°C° 0 mm 4 mps 730 mmHg 90%
    19:00 -1°C° 0 mm 4 mps 730 mmHg 89%
    20:00 0°C° 0 mm 3 mps 730 mmHg 88%
    21:00 0°C° 0 mm 3 mps 730 mmHg 87%
    22:00 0°C° 0 mm 3 mps 730 mmHg 87%
    23:00 0°C° 0 mm 3 mps 729 mmHg 86%

    Tomorrow, 17 January, Thursday

    Time Temperature Precipitation Wind Pressure Humidity
    00:00 -1°C° 0 mm 3 mps 729 mmHg 85%
    01:00 -1°C° 0 mm 3 mps 729 mmHg 85%
    02:00 -1°C° 0 mm 3 mps 728 mmHg 82%
    03:00 -1°C° 0 mm 3 mps 728 mmHg 80%
    04:00 0°C° 0 mm 3 mps 728 mmHg 77%
    05:00 -1°C° 0 mm 4 mps 727 mmHg 74%
    06:00 -1°C° 0 mm 4 mps 727 mmHg 71%
    07:00 -1°C° 0 mm 5 mps 727 mmHg 68%
    08:00 0°C° 0 mm 4 mps 727 mmHg 69%
    09:00 0°C° 0 mm 4 mps 727 mmHg 70%
    10:00 +1°C° 0 mm 4 mps 727 mmHg 72%
    11:00 +1°C° 0 mm 5 mps 727 mmHg 74%
    12:00 +2°C° 0 mm 5 mps 727 mmHg 76%
    13:00 +2°C° 0 mm 5 mps 727 mmHg 78%
    14:00 +1°C° 0 mm 4 mps 727 mmHg 80%
    15:00 +1°C° 0 mm 4 mps 727 mmHg 81%
    16:00 0°C° 0 mm 4 mps 727 mmHg 83%
    17:00 0°C° 0 mm 4 mps 727 mmHg 82%
    18:00 0°C° 0 mm 5 mps 727 mmHg 81%
    19:00 0°C° 0 mm 5 mps 727 mmHg 81%
    20:00 +1°C° 0 mm 5 mps 727 mmHg 80%
    21:00 +1°C° 0 mm 6 mps 727 mmHg 80%
    22:00 0°C° 0 mm 7 mps 727 mmHg 80%
    23:00 +1°C° 0 mm 6 mps 727 mmHg 81%

    Day after tomorrow, 18 January, Friday

    Time Temperature Precipitation Wind Pressure Humidity
    00:00 -1°C° 0 mm 6 mps 727 mmHg 82%
    01:00 -1°C° 0 mm 6 mps 728 mmHg 83%
    02:00 -1°C° 0 mm 6 mps 728 mmHg 81%
    03:00 -2°C° 0 mm 6 mps 728 mmHg 79%
    04:00 -2°C° 0 mm 6 mps 728 mmHg 78%
    05:00 -3°C° 0 mm 6 mps 729 mmHg 77%
    06:00 -3°C° 0 mm 7 mps 729 mmHg 75%
    07:00 -4°C° 0 mm 7 mps 730 mmHg 74%
    08:00 -4°C° 0 mm 7 mps 730 mmHg 72%
    09:00 -4°C° 0 mm 8 mps 731 mmHg 70%
    10:00 -4°C° 0 mm 9 mps 732 mmHg 68%
    11:00 -4°C° 0 mm 8 mps 732 mmHg 68%
    12:00 -4°C° 0 mm 8 mps 733 mmHg 68%
    13:00 -2°C° 0 mm 8 mps 733 mmHg 67%
    14:00 -3°C° 0 mm 7 mps 734 mmHg 70%
    15:00 -3°C° 0 mm 6 mps 735 mmHg 72%
    16:00 -2°C° 0 mm 5 mps 735 mmHg 75%
    17:00 -3°C° 0 mm 4 mps 736 mmHg 78%
    18:00 -2°C° 0 mm 3 mps 737 mmHg 81%
    19:00 -2°C° 0 mm 3 mps 737 mmHg 84%
    20:00 -4°C° 0 mm 3 mps 737 mmHg 85%
    21:00 -3°C° 0 mm 2 mps 738 mmHg 86%
    22:00 -4°C° 0 mm 2 mps 738 mmHg 87%
    23:00 -4°C° 0 mm 2 mps 738 mmHg 87%

    19 January, Saturday

    Time Temperature Precipitation Wind Pressure Humidity
    00:00 -4°C° 0 mm 2 mps 738 mmHg 87%
    01:00 -4°C° 0 mm 2 mps 739 mmHg 86%
    02:00 -2°C° 0 mm 1 mps 738 mmHg 86%
    03:00 -2°C° 0 mm 1 mps 738 mmHg 85%
    04:00 -2°C° 0 mm 1 mps 738 mmHg 84%
    05:00 -2°C° 0 mm 1 mps 738 mmHg 82%
    06:00 -2°C° 0 mm 1 mps 738 mmHg 81%
    07:00 -2°C° 0 mm 1 mps 738 mmHg 79%
    08:00 -2°C° 0 mm 1 mps 738 mmHg 76%
    09:00 -1°C° 0 mm 1 mps 738 mmHg 72%
    10:00 -1°C° 0 mm 1 mps 738 mmHg 68%
    11:00 -1°C° 0 mm 1 mps 738 mmHg 66%
    12:00 0°C° 0 mm 1 mps 738 mmHg 64%
    13:00 0°C° 0 mm 0 mps 737 mmHg 62%
    14:00 0°C° 0 mm 1 mps 737 mmHg 65%
    15:00 0°C° 0 mm 1 mps 737 mmHg 69%
    16:00 -1°C° 0 mm 1 mps 737 mmHg 73%
    17:00 -1°C° 0 mm 1 mps 737 mmHg 74%
    18:00 -1°C° 0 mm 1 mps 737 mmHg 76%
    19:00 -2°C° 0 mm 1 mps 737 mmHg 78%
    20:00 -2°C° 0 mm 1 mps 737 mmHg 79%
    21:00 -2°C° 0 mm 1 mps 737 mmHg 80%
    22:00 -2°C° 0 mm 1 mps 737 mmHg 81%
    23:00 -2°C° 0 mm 1 mps 736 mmHg 82%

    20 January, Sunday

    Time Temperature Precipitation Wind Pressure Humidity
    00:00 -2°C° 0 mm 1 mps 736 mmHg 83%
    01:00 -2°C° 0 mm 1 mps 736 mmHg 85%
    02:00 -2°C° 0 mm 1 mps 736 mmHg 85%
    03:00 -3°C° 0 mm 1 mps 736 mmHg 86%
    04:00 -3°C° 0 mm 1 mps 735 mmHg 87%
    05:00 -3°C° 0 mm 1 mps 736 mmHg 87%
    06:00 -3°C° 0 mm 1 mps 736 mmHg 87%
    07:00 -3°C° 0 mm 1 mps 736 mmHg 88%
    08:00 -3°C° 0 mm 1 mps 736 mmHg 84%
    09:00 -3°C° 0 mm 0 mps 736 mmHg 80%
    10:00 -3°C° 0 mm 0 mps 737 mmHg 77%
    11:00 -1°C° 0 mm 1 mps 737 mmHg 72%
    12:00 0°C° 0 mm 1 mps 736 mmHg 68%
    13:00 0°C° 0 mm 1 mps 736 mmHg 64%
    14:00 0°C° 0 mm 1 mps 736 mmHg 66%
    15:00 -1°C° 0 mm 1 mps 737 mmHg 69%
    16:00 -3°C° 0 mm 2 mps 737 mmHg 72%
    17:00 -3°C° 0 mm 2 mps 737 mmHg 73%
    18:00 -4°C° 0 mm 2 mps 738 mmHg 75%
    19:00 -4°C° 0 mm 2 mps 738 mmHg 76%
    20:00 -4°C° 0 mm 2 mps 738 mmHg 77%
    21:00 -4°C° 0 mm 2 mps 739 mmHg 78%
    22:00 -4°C° 0 mm 2 mps 739 mmHg 80%
    23:00 -5°C° 0 mm 3 mps 739 mmHg 82%

    21 January, Monday

    Time Temperature Precipitation Wind Pressure Humidity
    00:00 -5°C° 0 mm 3 mps 740 mmHg 84%
    01:00 -5°C° 0 mm 3 mps 740 mmHg 86%
    02:00 -5°C° 0 mm 3 mps 740 mmHg 88%
    03:00 -5°C° 0 mm 2 mps 741 mmHg 90%
    04:00 -5°C° 0 mm 2 mps 741 mmHg 92%
    05:00 -5°C° 0 mm 2 mps 741 mmHg 92%
    06:00 -6°C° 0 mm 2 mps 742 mmHg 92%
    07:00 -6°C° 0 mm 2 mps 742 mmHg 92%
    08:00 -5°C° 0 mm 2 mps 743 mmHg 88%
    09:00 -5°C° 0 mm 2 mps 743 mmHg 84%
    10:00 -4°C° 0 mm 2 mps 744 mmHg 80%
    11:00 -4°C° 0 mm 2 mps 744 mmHg 75%
    12:00 -3°C° 0 mm 2 mps 744 mmHg 71%
    13:00 -3°C° 0 mm 2 mps 744 mmHg 67%
    14:00 -1°C° 0 mm 1 mps 744 mmHg 69%
    15:00 -2°C° 0 mm 1 mps 744 mmHg 71%
    16:00 -2°C° 0 mm 1 mps 744 mmHg 73%
    17:00 -2°C° 0 mm 1 mps 745 mmHg 74%
    18:00 -3°C° 0 mm 1 mps 745 mmHg 76%
    19:00 -4°C° 0 mm 0 mps 745 mmHg 77%
    20:00 -3°C° 0 mm 1 mps 745 mmHg 78%
    21:00 -4°C° 0 mm 1 mps 745 mmHg 79%
    22:00 -4°C° 0 mm 1 mps 745 mmHg 80%
    23:00 -4°C° 0 mm 1 mps 745 mmHg 80%
    Show more